Hourly Data Report for February 27, 2003

SHERBROOKE A
QUEBEC

45°26'00.000" N
71°41'00.000" W
241.40 m
7028124
71610
YSC

Download Data

Hourly Data (February 2003)
Hourly Data Report for February 27, 2003
TIME
LST
Temp Definition
°C
Dew Point Definition
°C
Rel Hum Definition
%
Precip. Amount Definition
mm

Wind Dir Definition
10's deg

Wind Spd Definition
km/h
Visibility Definition
km
Stn Press Definition
kPa
Hmdx Definition


Wind Chill Definition


Weather Definition


00:00 -22.1 -27.8 60   7 7 15.0 99.61   -28  
01:00 -22.3 -28.1 59   9 9 15.0 99.62   -29  
02:00 -22.8 -28.5 60   7 9 15.0 99.59   -30  
03:00 -23.6 -29.0 61   8 7 15.0 99.59   -30  
04:00 -24.3 -29.7 61   8 7 15.0 99.60   -31  
05:00 -26.5 -31.8 61   7 6 15.0 99.61   -32  
06:00 -25.8 -31.2 60   7 9 15.0 99.61   -34  
07:00 -25.5 -31.1 59   8 7 15.0 99.62   -32  
08:00 -22.9 -28.8 58   8 6 24.1 99.65   -28 Clear
09:00 -19.6 -26.6 54   9 6 24.1 99.64   -25 Clear
10:00 -15.2 -23.8 48     0 24.1 99.64     Clear
11:00 -10.5 -20.7 43     0 24.1 99.57     Mainly Clear
12:00 -7.9 -20.1 37     0 24.1 99.48     Mainly Clear
13:00 -6.5 -19.3 35     0 24.1 99.37     Mainly Clear
14:00 -5.3 -18.7 34   16 6 24.1 99.31   -8 Mainly Clear
15:00 -5.2 -20.1 30   29 7 24.1 99.28   -8 Mainly Clear
16:00 -4.2 -18.5 32     0 15.0 99.25      
17:00 -5.1 -18.5 34     0 24.1 99.22     Clear
18:00 -10.4 -18.6 51   5 4 15.0 99.22   -13  
19:00 -13.0 -18.9 61   10 4 15.0 99.23   -16  
20:00 -13.3 -18.9 63   9 7 15.0 99.22   -18  
21:00 -14.9 -20.1 64   8 6 15.0 99.20   -19  
22:00 -14.0 -19.9 61   8 11 15.0 99.17   -20  
23:00 -15.3 -20.8 63   9 6 15.0 99.14   -20  

Notes on Data Quality.

Legend

  • E = Estimated
  • M = Missing
  • NA = Not Available*
  • [empty] = Indicates an unobserved value
Date modified: